This demonstration page uses our WeatherBlox Daily Observations layout. Learn more.

Left ArrowRight Arrow

44.31136, -96.79839

Hourly Observations for July 5, 2015

Temp ( °F °C ) Dew Point ( °F °C ) Humidity (%) Winds ( mph kmh ) Pressure ( in mb ) Visibility ( mi km ) Precip ( " mm )
12:15 am 00:15 Clear 70 21 63 17 78 78 SSE 15 24 29.83 1010 10 16 0.00 0.00
12:35 am 00:35 Clear 70 21 63 17 78 78 S 14 22 29.83 1010 10 16 0.00 0.00
12:55 am 00:55 Clear 70 21 63 17 78 78 SSE 14 22 29.83 1010 10 16 0.00 0.00
1:15 am 01:15 Clear 70 21 63 17 78 78 S 13 20 29.83 1010 10 16 0.00 0.00
1:35 am 01:35 Clear 70 21 63 17 78 78 S 16 26 29.83 1010 10 16 0.00 0.00
1:55 am 01:55 Clear 70 21 63 17 78 78 S 14 22 29.83 1010 10 16 0.00 0.00
2:15 am 02:15 Clear 70 21 63 17 78 78 SSE 12 19 29.83 1010 10 16 0.00 0.00
2:35 am 02:35 Clear 70 21 63 17 78 78 SSE 15 24 29.83 1010 10 16 0.00 0.00
2:55 am 02:55 Clear 70 21 61 16 73 73 SSE 15 24 29.83 1010 10 16 0.00 0.00
3:15 am 03:15 Clear 70 21 61 16 73 73 SSE 13 20 29.80 1009 10 16 0.00 0.00
3:35 am 03:35 Clear 68 20 61 16 78 78 S 14 22 29.80 1009 10 16 0.00 0.00
3:55 am 03:55 Clear 68 20 61 16 78 78 S 12 19 29.83 1010 10 16 0.00 0.00
4:15 am 04:15 Clear 68 20 61 16 78 78 SSE 10 17 29.80 1009 10 16 0.00 0.00
4:35 am 04:35 Clear 68 20 61 16 78 78 SSE 10 17 29.83 1010 10 16 0.00 0.00
4:55 am 04:55 Mostly Cloudy with Nearby Thunderstorms 68 20 61 16 78 78 SSE 7 11 29.83 1010 10 16 0.00 0.00
5:15 am 05:15 Mostly Cloudy with Thunderstorms 68 20 63 17 83 83 WSW 6 9 29.85 1011 10 16 0.00 0.00
5:35 am 05:35 Cloudy with Thunderstorms 66 19 63 17 88 88 S 5 7 29.88 1012 2 3 0.00 0.00
5:55 am 05:55 Cloudy with Thunderstorms 68 20 63 17 83 83 SSE 15 24 29.88 1012 5 8 0.00 0.00
6:15 am 06:15 Cloudy with Thunderstorms 68 20 63 17 83 83 SSE 12 19 29.85 1011 7 11 0.00 0.00
6:35 am 06:35 Cloudy 68 20 63 17 83 83 SE 15 24 29.85 1011 4 6 0.00 0.00
6:55 am 06:55 Mostly Sunny 68 20 63 17 83 83 ESE 17 28 29.83 1010 6 10 0.00 0.00
7:15 am 07:15 Sunny 68 20 63 17 83 83 SSE 16 26 29.83 1010 9 14 0.00 0.00
7:35 am 07:35 Sunny 66 19 63 17 88 88 S 13 20 29.83 1010 6 10 0.00 0.00
7:55 am 07:55 Sunny 66 19 63 17 88 88 S 15 24 29.83 1010 5 8 0.00 0.00
8:15 am 08:15 Mostly Sunny 66 19 63 17 88 88 S 14 22 29.80 1009 5 8 0.00 0.00
8:35 am 08:35 Sunny 70 21 64 18 83 83 S 13 20 29.80 1009 6 10 0.00 0.00
8:55 am 08:55 Sunny 70 21 64 18 83 83 S 14 22 29.80 1009 8 13 0.00 0.00
9:15 am 09:15 Sunny 72 22 66 19 83 83 S 16 26 29.80 1009 10 16 0.00 0.00
9:35 am 09:35 Sunny 73 23 64 18 74 74 S 20 31 29.77 1008 10 16 0.00 0.00
9:55 am 09:55 Sunny 73 23 66 19 78 78 S 13 20 29.74 1007 10 16 0.00 0.00
10:15 am 10:15 Sunny 75 24 66 19 74 74 S 18 30 29.74 1007 10 16 0.00 0.00
10:35 am 10:35 Sunny 77 25 66 19 69 69 S 17 28 29.74 1007 10 16 0.00 0.00
10:55 am 10:55 Sunny 79 26 66 19 65 65 S 15 24 29.71 1006 10 16 0.00 0.00
11:15 am 11:15 Sunny 79 26 64 18 61 61 S 23 37 29.71 1006 10 16 0.00 0.00
11:35 am 11:35 Sunny 81 27 64 18 58 58 SSW 24 39 29.71 1006 10 16 0.00 0.00
11:55 am 11:55 Sunny 81 27 66 19 62 62 SSW 24 39 29.71 1006 10 16 0.00 0.00
12:15 pm 12:15 Sunny 82 28 68 20 62 62 S 20 31 29.71 1006 10 16 0.00 0.00
12:35 pm 12:35 Sunny 82 28 66 19 58 58 SSW 20 31 29.71 1006 10 16 0.00 0.00
12:55 pm 12:55 Sunny 82 28 68 20 62 62 SSW 14 22 29.71 1006 10 16 0.00 0.00
1:15 pm 13:15 Sunny 84 29 68 20 58 58 SSW 16 26 29.71 1006 10 16 0.00 0.00
1:35 pm 13:35 Sunny 84 29 66 19 55 55 SW 18 30 29.71 1006 10 16 0.00 0.00
1:55 pm 13:55 Sunny 86 30 68 20 55 55 SSW 14 22 29.71 1006 10 16 0.00 0.00
2:15 pm 14:15 Sunny 86 30 68 20 55 55 SW 15 24 29.71 1006 10 16 0.00 0.00
2:35 pm 14:35 Sunny 88 31 68 20 52 52 SW 10 17 29.71 1006 10 16 0.00 0.00
2:55 pm 14:55 Sunny 88 31 68 20 52 52 WSW 10 17 29.71 1006 10 16 0.00 0.00
3:15 pm 15:15 Sunny 88 31 66 19 49 49 SSW 12 19 29.71 1006 10 16 0.00 0.00
3:35 pm 15:35 Sunny 88 31 66 19 49 49 S 13 20 29.71 1006 10 16 0.00 0.00
3:55 pm 15:55 Mostly Sunny 84 29 68 20 58 58 S 9 15 29.71 1006 10 16 0.00 0.00
4:15 pm 16:15 Mostly Sunny 86 30 70 21 59 59 S 13 20 29.71 1006 10 16 0.00 0.00
4:35 pm 16:35 Mostly Sunny 84 29 70 21 62 62 S 7 11 29.68 1005 10 16 0.00 0.00
4:55 pm 16:55 Sunny 86 30 72 22 62 62 SE 16 26 29.68 1005 10 16 0.00 0.00
5:15 pm 17:15 Sunny N/A N/A N/A SSE 17 28 N/A 10 16 0.00 0.00
5:35 pm 17:35 Sunny N/A N/A N/A SSE 21 33 N/A 10 16 0.00 0.00
5:55 pm 17:55 Sunny N/A N/A N/A SSE 16 26 N/A 10 16 0.00 0.00
6:15 pm 18:15 Sunny 82 28 70 21 66 66 SSE 14 22 29.68 1005 10 16 0.00 0.00
6:35 pm 18:35 Sunny 84 29 72 22 66 66 S 14 22 29.68 1005 10 16 0.00 0.00
6:55 pm 18:55 Sunny 84 29 72 22 66 66 SSE 16 26 29.68 1005 10 16 0.00 0.00
7:15 pm 19:15 Sunny 82 28 72 22 70 70 S 15 24 29.68 1005 10 16 0.00 0.00
7:35 pm 19:35 Sunny 82 28 72 22 70 70 S 15 24 29.68 1005 10 16 0.00 0.00
7:55 pm 19:55 Sunny 82 28 72 22 70 70 S 16 26 29.65 1004 10 16 0.00 0.00
8:15 pm 20:15 Mostly Sunny 81 27 72 22 74 74 S 13 20 29.62 1003 10 16 0.00 0.00
8:35 pm 20:35 Partly Cloudy 81 27 72 22 74 74 S 10 17 29.68 1005 10 16 0.00 0.00
8:55 pm 20:55 Partly Cloudy 81 27 72 22 74 74 SSE 12 19 29.68 1005 10 16 0.00 0.00
9:15 pm 21:15 Partly Cloudy 81 27 72 22 74 74 S 10 17 29.68 1005 10 16 0.00 0.00
9:35 pm 21:35 Mostly Cloudy 81 27 72 22 74 74 S 7 11 29.71 1006 10 16 0.00 0.00
9:55 pm 21:55 Mostly Cloudy with Nearby Thunderstorms 79 26 72 22 79 79 S 6 9 29.74 1007 10 16 0.00 0.00
10:15 pm 22:15 Partly Cloudy with Nearby Thunderstorms 79 26 72 22 79 79 ESE 3 6 29.74 1007 10 16 0.00 0.00
10:35 pm 22:35 Partly Cloudy with Nearby Thunderstorms 79 26 72 22 79 79 N 21 33 29.77 1008 10 16 0.00 0.00
10:55 pm 22:55 Mostly Cloudy with Thunderstorms 70 21 63 17 78 78 N 30 48 29.77 1008 10 16 0.00 0.00
11:15 pm 23:15 Mostly Cloudy with Thunderstorms 66 19 63 17 88 88 N 20 31 29.80 1009 10 16 0.06 1.52
11:35 pm 23:35 Cloudy with Nearby Thunderstorms 68 20 63 17 83 83 ENE 8 13 29.77 1008 5 8 0.18 4.57
11:55 pm 23:55 Cloudy 70 21 64 18 83 83 SE 15 24 29.74 1007 10 16 0.21 5.33

Powered by AerisWeather